Location: Anciles
(42.5833°N, 0.5167°E)
Time: 15:35:42
(UTC+00:00)

AQUARIUS - Pass Details

Date: 10 December 2019
Orbit: 650 x 653 km, 98.0° (Epoch: 18 January)

Event Time Altitude Azimuth Distance (km) Brightness Sun altitude
Rises 17:28:44 0° 168° (SSE) 2,960 7.7 -11.5°
Reaches altitude 10° 17:30:56 10° 169° (SSE) 2,054 6.8 -11.8°
Maximum altitude 17:35:25 83° 257° (WSW) 664 4.3 -12.6°
Drops below altitude 10° 17:39:57 10° 345° (NNW) 2,070 6.7 -13.4°
Sets 17:42:11 0° 347° (NNW) 2,985 7.5 -13.8°
